Pardubice, Czech Republic

10:18 PM CEST on September 26, 2017 (GMT +0200)
Pardubice

Weather History for LKPD - April, 2013

Change the Weather History Date:

Tuesday, April 9, 2013

  Actual Average Record
Temperature  
Mean Temperature 41 °F -  
Max Temperature 50 °F - - ()
Min Temperature 32 °F - - ()
Degree Days  
Heating Degree Days 24    
Moisture  
Dew Point 31 °F    
Average Humidity 68    
Maximum Humidity 87    
Minimum Humidity 56    
Precipitation  
Precipitation 0.00 in - - ()
Sea Level Pressure  
Sea Level Pressure 29.70 in    
Wind  
Wind Speed 5 mph ()    
Max Wind Speed 13 mph    
Max Gust Speed -    
Visibility 5.0 miles    
Events Rain    
T = Trace of Precipitation, MM = Missing Value Source: Averaged Metar Reports

Daily Weather History Graph

Daily Weather History Graph

Search for Another Location

Airport or City:

Trip Planner

Search our weather history database for the weather conditions in past years. The results will help you decide how hot, cold, wet, or windy it might be!

Date:

Astronomy

Apr. 09, 2013 Rise Set
Actual Time 6:16 AM CEST 7:41 PM CEST
Civil Twilight 5:43 AM CEST 8:15 PM CEST
Nautical Twilight 5:02 AM CEST 8:56 PM CEST
Astronomical Twilight 4:18 AM CEST 9:40 PM CEST
Moon 5:34 AM CEST (4/9) 6:58 PM CEST (4/9)
Length of Visible Light 14h 32m
Length of Day
13h 24m
Waning Crescent, 1% of the Moon is Illuminated
Apr 9
Waning Crescent
Apr 10
New
Apr 18
First Quarter
Apr 25
Full
May 2
Last Quarter

Hourly Weather History & Observations

Time (CEST) Temp. Windchill Dew Point Humidity Pressure Visibility Wind Dir Wind Speed Gust Speed Precip Events Conditions
12:00 AM 39.2 °F 31.6 °F 24.8 °F 56% 29.74 in 6.2 mi East 12.7 mph - N/A   Overcast
1:00 AM 37.4 °F 31.4 °F 24.8 °F 60% 29.74 in 6.2 mi East 8.1 mph - N/A   Overcast
2:00 AM 37.4 °F 33.8 °F 23.0 °F 56% 29.71 in - East 4.6 mph - N/A   Clear
3:00 AM 37.4 °F 32.8 °F 23.0 °F 56% 29.71 in - East 5.8 mph - N/A   Clear
4:00 AM 33.8 °F - 26.6 °F 75% 29.71 in - Variable 2.3 mph - N/A   Clear
5:00 AM 33.8 °F - 26.6 °F 75% 29.71 in - Calm Calm - N/A   Clear
6:00 AM 32.0 °F - 28.4 °F 87% 29.68 in 5.0 mi SE 2.3 mph - N/A   Unknown
7:00 AM 32.0 °F 28.7 °F 28.4 °F 87% 29.71 in 3.7 mi South 3.5 mph - N/A   Overcast
8:00 AM 37.4 °F 34.9 °F 30.2 °F 75% 29.71 in 3.7 mi SSE 3.5 mph - N/A   Overcast
9:00 AM 39.2 °F 35.9 °F 32.0 °F 75% 29.71 in 3.7 mi SE 4.6 mph - N/A Rain Light Rain
10:00 AM 42.8 °F - 33.8 °F 70% 29.71 in 4.3 mi Variable 2.3 mph - N/A Rain Light Rain
12:00 PM 44.6 °F 43.1 °F 32.0 °F 61% 29.71 in 4.3 mi South 3.5 mph - N/A   Mostly Cloudy
1:00 PM 44.6 °F 43.1 °F 33.8 °F 66% 29.71 in 6.2 mi SSE 3.5 mph - N/A   Mostly Cloudy
2:00 PM 46.4 °F 45.2 °F 33.8 °F 62% 29.71 in 6.2 mi ESE 3.5 mph - N/A   Mostly Cloudy
3:00 PM 48.2 °F - 33.8 °F 58% 29.68 in 5.0 mi Variable 4.6 mph - N/A   Mostly Cloudy
4:00 PM 48.2 °F - 35.6 °F 62% 29.68 in 5.0 mi ESE 4.6 mph - N/A   Mostly Cloudy
5:00 PM 48.2 °F - 33.8 °F 58% 29.68 in - ESE 8.1 mph - N/A   Clear
6:00 PM 50.0 °F - 35.6 °F 58% 29.68 in - ESE 9.2 mph - N/A   Clear
7:00 PM 48.2 °F - 35.6 °F 62% 29.68 in - East 8.1 mph - N/A   Clear
8:00 PM 46.4 °F 41.9 °F 35.6 °F 66% 29.68 in 5.0 mi East 9.2 mph - N/A   Unknown
9:00 PM 42.8 °F 37.0 °F 35.6 °F 76% 29.68 in 5.0 mi ESE 10.4 mph - N/A   Unknown
10:00 PM 42.8 °F 38.0 °F 35.6 °F 76% 29.68 in 5.0 mi ESE 8.1 mph - N/A   Unknown
11:00 PM 42.8 °F 36.2 °F 35.6 °F 76% 29.68 in 5.0 mi East 12.7 mph - N/A   Unknown